Regional Weather Roundup
Issued by NWS Newport/Morehead, NC

Current Version | Previous Version | Text Only | Print | Product List | Glossary Off
Versions: 1 2 3 4 5 6 7 8 9 10 11 12 13 14 15 16 17 18 19 20 21 22 23 24 25 26 27 28 29 30 31 32 33 34 35 36 37 38 39 40 41 42 43 44 45 46 47 48 49 50
000 ASUS42 KMHX 302325 RWRMHX WEATHER ROUNDUP FOR EASTERN NORTH CAROLINA NATIONAL WEATHER SERVICE NEWPORT/MOREHEAD CITY NC 700 PM EDT SUN AUG 30 2015 NOTE: "FAIR" INDICATES FEW OR NO CLOUDS BELOW 12,000 FEET WITH NO SIGNIFICANT WEATHER AND/OR OBSTRUCTIONS TO VISIBILITY NCZ015>017-031-032-045>047-102-103-310000- NORTH COAST CITY SKY/WX TMP DP RH WIND PRES REMARKS EDENTON MOCLDY 78 69 73 CALM 30.12F ELIZABETH CITY MOCLDY 79 70 74 CALM 30.13R KITTY HAWK CLOUDY 79 69 72 CALM 30.12S MANTEO CLOUDY 77 70 78 CALM 30.13S $$ NCZ045>047-081-094-103-104-310000- CENTRAL COAST CITY SKY/WX TMP DP RH WIND PRES REMARKS FRISCO MOCLDY 79 73 82 CALM 30.13R SWANQUARTER NOT AVBL $$ NCZ095-097-098-100-101-310000- SOUTHERN COAST CITY SKY/WX TMP DP RH WIND PRES REMARKS BEAUFORT CLOUDY 78 68 71 SW3 30.13R CEDAR ISLAND NOT AVBL JACKSONVILLE CLOUDY 77 70 79 CALM 30.12F PINEY ISLAND CLOUDY N/A N/A N/A CALM 30.12F WILMINGTON CLOUDY 76 70 82 CALM 30.13F $$ NCZ011>013-027>030-043-044-078>080-089-090>093-098-310000- COASTAL PLAIN CITY SKY/WX TMP DP RH WIND PRES REMARKS AHOSKIE CLOUDY 77 65 67 CALM 30.12F CLINTON LGT RAIN 74 70 86 CALM 30.13F ELIZABETHTOWN RAIN 72 70 93 CALM 30.13F GOLDSBORO CLOUDY 80 68 68 S5 30.11F GREENVILLE CLOUDY 79 68 69 CALM 30.13S HAVELOCK CLOUDY 78 69 73 S5 30.14R KENANSVILLE N/A 75 68 77 CALM 30.13F KINSTON CLOUDY 79 68 69 CALM 30.13F NEW BERN CLOUDY 78 71 79 CALM 30.13F RICHLANDS CLOUDY 77 66 69 SW3 30.13S ROCKY MOUNT CLOUDY 82 63 52 CALM 30.12F WASHINGTON CLOUDY 78 67 67 CALM 30.11F WHITEVILLE DRIZZLE 73 70 92 CALM 30.13S $$ AMZ130-135-150-152-154-156-158-170-250-252-270-ANZ085-086-088-633-658-670-310000- MARINE OBSERVATIONS STATION/POSITION TIME TEMP WIND PRES WAVE SWELL AIR SEA DIR/SP/G HT/PER HT/PER (UTC) (F) (DEG/KT/KT) (MB) (FT/S) (FT/S) CHESAPEAKE LIGHT 2300 78 180/ 7/ 8 1020.7 64 E VA BEACH 2250 78 78 90/ 2/ 2 1019.4 3/11 3/11 DUCK NOT AVBL 2 E DUCK 2311 79 N/A 3/11 2/11 OREGON INLET NOT AVBL 13E OREGON INLT 2300 79 N/A 4/11 2/11 HATTERAS CG NOT AVBL DIAMOND BUOY 2250 79 81 340/ 4/ 6 1020.0 3/10 3/10 CAPE LOOKOUT 2300 78 220/ 2/ 3 1019.9 BEAUFORT LAB NOT AVBL 30 SE NEW RVR IN 2208 80 82 140/ 2/ 4 1020.5 30 SE NEW RVR IN 2225 82 N/A 3/10 2/11 27 SE WRIGHTSVLE 2300 77 82 CALM / 2 N/A 5 SE WRIGHTSVLE 2208 80 82 40/ 2/ 4 1020.4 225 S CAPE HAT 2250 83 85 110/ 8/ 10 1019.9 5/10 5/10 41 SE CHARLESTON 2250 77 84 80/ 16/ 17 1018.5 4/10 3/10 $$

USA.gov is the U.S. government's official web portal to all federal, state and local government web resources and services.